FW5243 Weather Reports


Display with metric or nautical units.
time (UTC)temp
F
wind
direction
speed
MPH
gust
MPH
rain 1hr
in
rain 24hr
in
rain mn
in
humidity
%
barometer
mb
20260504081517 46 143 1.0 6.0 0.00 0.00 0.00 63 1014.9
20260504050001 44 128 0.0 2.0 0.00 0.00 0.00 67 1014.9
20260504044500 44 121 0.0 2.0 0.00 0.00 0.00 66 1015.0
20260504043112 45 121 0.0 3.0 0.00 0.00 0.00 65 1014.9
20260504041556 45 123 0.0 4.0 0.00 0.00 0.00 64 1014.7
20260504040113 45 121 0.0 4.0 0.00 0.00 0.00 63 1014.7
20260504034554 45 158 0.0 3.0 0.00 0.00 0.00 63 1014.7
20260504033053 46 102 0.0 2.0 0.00 0.00 0.00 62 1014.6
20260504031557 46 153 0.0 3.0 0.00 0.00 0.00 61 1014.6
20260504030051 46 122 0.0 3.0 0.00 0.00 0.00 61 1014.7
20260504024551 45 130 0.0 2.0 0.00 0.00 0.00 62 1014.7
20260504023059 46 132 0.0 1.0 0.00 0.00 0.00 63 1014.7
20260504021552 47 130 0.0 3.0 0.00 0.00 0.00 61 1014.8
20260504020049 48 138 1.0 4.0 0.00 0.00 0.00 59 1014.7
20260504014600 47 152 1.0 2.0 0.00 0.00 0.00 61 1014.7
20260504013051 47 152 0.0 2.0 0.00 0.00 0.00 61 1014.5
20260504011549 47 152 0.0 2.0 0.00 0.00 0.00 60 1014.5
20260504010053 47 137 1.0 3.0 0.00 0.00 0.00 58 1014.4
20260504004552 47 360 0.0 0.0 0.00 0.00 0.00 61 1014.2
20260504003055 48 360 0.0 0.0 0.00 0.00 0.00 59 1014.2
20260504001602 49 360 0.0 0.0 0.00 0.00 0.00 56 1014.1
20260504000056 51 360 0.0 0.0 0.00 0.00 0.00 58 1013.9
20260503234545 52 360 0.0 1.0 0.00 0.00 0.00 55 1013.9
20260503233046 52 360 0.0 0.0 0.00 0.00 0.00 56 1013.8
20260503231544 53 360 0.0 3.0 0.00 0.00 0.00 52 1013.9
20260503230048 53 360 1.0 5.0 0.00 0.00 0.00 51 1013.7
20260503224545 54 63 2.0 12.0 0.00 0.00 0.00 52 1013.6
20260503223043 54 82 3.0 9.0 0.00 0.00 0.00 48 1013.7
20260503221551 54 184 5.0 10.0 0.00 0.00 0.00 52 1013.6
20260503220041 54 118 3.0 13.0 0.00 0.00 0.00 46 1013.6
20260503214540 55 78 4.0 10.0 0.00 0.00 0.00 50 1013.7
20260503213040 55 96 4.0 8.0 0.00 0.00 0.00 48 1013.5
20260503211539 55 60 4.0 8.0 0.00 0.00 0.00 52 1013.7
20260503210038 55 163 4.0 15.0 0.00 0.00 0.00 48 1013.6
20260503204541 55 26 5.0 14.0 0.00 0.00 0.00 48 1013.5
20260503203036 55 59 7.0 14.0 0.00 0.00 0.00 47 1013.6
20260503201536 54 105 4.0 12.0 0.00 0.00 0.00 51 1013.5
20260503200035 54 86 4.0 14.0 0.00 0.00 0.00 48 1013.6
20260503194534 55 144 5.0 10.0 0.00 0.00 0.00 43 1013.7
20260503193040 54 121 4.0 11.0 0.00 0.00 0.00 45 1014.1
20260503191531 55 133 5.0 13.0 0.00 0.00 0.00 50 1014.3
20260503190028 55 210 3.0 14.0 0.00 0.00 0.00 45 1014.4
20260503184527 54 326 2.0 14.0 0.00 0.00 0.00 50 1014.8
20260503183021 53 60 1.0 9.0 0.00 0.00 0.00 49 1015.0
20260503181518 52 17 5.0 13.0 0.00 0.00 0.00 44 1015.3
20260503180020 52 50 5.0 12.0 0.00 0.00 0.00 49 1015.2
20260503174513 50 360 3.0 12.0 0.00 0.00 0.00 56 1015.6
20260503173022 50 47 5.0 13.0 0.00 0.00 0.00 47 1015.8
20260503171520 48 14 4.0 10.0 0.00 0.00 0.00 50 1016.0
20260503150111 47 96 6.0 13.0 0.00 0.00 0.00 57 1016.5